This demonstration page uses our WeatherBlox Daily Observations layout. Learn more.

Left ArrowRight Arrow

Hourly Observations for March 19, 2018

Temp ( °F °C ) Dew Point ( °F °C ) Humidity (%) Winds ( mph kmh ) Pressure ( in mb ) Visibility ( mi km ) Precip ( " mm )
12:53 am 00:53 Clear 44 6.7 39 3.9 83 83 Calm 30.17 1022 10 16 0.00 0.00
1:53 am 01:53 Clear 43 6.1 38 3.3 82 82 N 3 6 30.17 1022 10 16 0.00 0.00
2:53 am 02:53 Clear 43 6.1 38 3.3 82 82 NNW 6 9 30.17 1022 10 16 0.00 0.00
3:53 am 03:53 Clear 43 6.1 38 3.3 82 82 NNW 5 7 30.16 1022 10 16 0.00 0.00
4:53 am 04:53 Clear 39 3.9 37 2.8 93 93 N 3 6 30.16 1021 10 16 0.00 0.00
5:53 am 05:53 Clear 37 2.8 34 1.1 89 89 NNW 3 6 30.16 1021 10 16 0.00 0.00
6:53 am 06:53 Clear 37 2.8 35 1.7 93 93 Calm 30.16 1021 10 16 0.00 0.00
7:53 am 07:53 Sunny 37 2.8 34 1.1 89 89 Calm 30.17 1022 10 16 0.00 0.00
8:53 am 08:53 Sunny 45 7.2 38 3.3 77 77 NNE 3 6 30.17 1022 10 16 0.00 0.00
9:53 am 09:53 Sunny 50 10 39 3.9 66 66 NNE 5 7 30.16 1021 10 16 0.00 0.00
10:53 am 10:53 Sunny 54 12.2 37 2.8 53 53 Calm 30.16 1021 10 16 0.00 0.00
11:53 am 11:53 Sunny 58 14.4 38 3.3 48 48 NE 3 6 30.14 1021 10 16 0.00 0.00
12:53 pm 12:53 Sunny 60 15.6 32 0 35 35 VRB 3 6 30.12 1020 10 16 0.00 0.00
1:53 pm 13:53 Sunny 62 16.7 28 -2.2 28 28 S 6 9 30.08 1019 10 16 0.00 0.00
2:53 pm 14:53 Sunny 63 17.2 27 -2.8 26 26 VRB 5 7 30.06 1018 10 16 0.00 0.00
3:53 pm 15:53 Sunny 64 17.8 23 -5 21 21 SSW 8 13 30.05 1018 10 16 0.00 0.00
4:53 pm 16:53 Sunny 64 17.8 19 -7.2 18 18 SSW 6 9 30.03 1017 10 16 0.00 0.00
5:53 pm 17:53 Sunny 63 17.2 25 -3.9 24 24 SSE 5 7 30.02 1017 10 16 0.00 0.00
6:53 pm 18:53 Sunny 61 16.1 27 -2.8 27 27 S 5 7 30.02 1017 10 16 0.00 0.00
7:53 pm 19:53 Clear 56 13.3 31 -0.6 39 39 Calm 30.01 1016 10 16 0.00 0.00
8:53 pm 20:53 Clear 55 12.8 35 1.7 47 47 Calm 30.02 1017 10 16 0.00 0.00
9:53 pm 21:53 Clear 50 10 35 1.7 57 57 NNE 5 7 30.03 1017 10 16 0.00 0.00
10:53 pm 22:53 Clear 48 8.9 35 1.7 61 61 WNW 3 6 30.04 1017 10 16 0.00 0.00
11:53 pm 23:53 Mostly Clear 50 10 35 1.7 57 57 N 3 6 30.05 1018 10 16 0.00 0.00

Powered by AerisWeather